Theta_e
308 309 310 311 311 311 311 311 311 312 312 312 312 313 313 314 316 320 320 314 316 315 318 317 318 317 319 321 321 321 326 328 327 328 336 343 344 343 344 343 342 343 343 342 337
309 311 312 312 312 312 312 311 311 312 313 313 313 313 313 315 320 320 315 314 319 316 317 315 315 318 319 320 321 323 326 327 325 329 339 343 344 343 345 341 344 342 340 332 331
311 312 313 313 313 313 313 312 311 313 314 316 314 313 314 315 324 322 314 314 316 316 315 315 315 318 320 320 321 321 327 324 325 324 335 343 343 343 344 342 343 341 341 334 331
313 314 314 314 314 314 313 312 311 314 316 317 314 314 314 316 328 325 316 317 316 316 316 315 317 319 321 323 321 325 323 324 323 331 341 343 343 344 342 341 341 340 338 338 336
314 314 314 314 314 314 314 313 312 315 316 316 316 316 315 317 316 326 321 318 317 315 315 318 319 319 322 321 320 323 323 321 321 331 341 343 344 344 343 341 339 337 340 339 338
314 314 314 314 314 314 314 313 312 313 315 316 318 319 316 318 322 325 321 321 318 315 317 319 320 320 320 320 321 321 321 321 322 322 335 343 343 344 343 341 340 336 339 339 339
314 314 314 314 313 313 314 313 312 313 314 318 319 320 317 316 320 324 320 318 315 315 318 319 320 319 319 321 319 320 323 324 332 331 340 341 344 344 342 342 340 339 340 341 340
314 314 314 314 313 313 314 313 313 314 315 318 319 319 317 317 319 324 320 317 315 314 316 319 318 319 319 319 320 322 323 326 333 336 338 340 337 341 342 342 341 341 341 341 341
314 314 314 314 314 313 314 314 314 315 316 319 318 319 318 321 322 324 323 320 317 315 315 319 319 319 319 322 323 323 326 325 335 332 339 339 337 338 342 342 340 341 341 342 341
314 314 314 314 314 313 314 313 315 316 316 316 316 320 319 322 320 321 322 321 320 320 320 319 318 321 320 322 323 325 325 324 329 335 340 338 339 338 342 342 339 340 341 342 342
314 314 314 314 314 313 314 315 316 316 316 317 316 316 316 317 318 320 322 323 322 319 319 317 321 322 322 321 321 322 324 325 323 323 338 341 338 337 342 342 339 339 340 341 342
314 314 314 314 314 311 315 313 309 311 315 315 315 316 316 316 315 319 321 323 322 322 317 318 320 320 319 319 320 321 322 323 322 320 334 337 340 339 337 343 341 339 339 340 340
315 314 314 314 313 311 314 311 310 314 316 315 314 315 316 316 317 319 321 321 322 321 318 319 319 318 319 319 321 321 322 322 323 322 322 322 327 328 331 336 341 341 340 340 340
315 314 314 314 313 312 311 310 310 316 316 318 320 318 316 316 318 320 321 321 317 321 317 318 316 318 319 319 320 322 321 321 321 323 324 323 325 325 329 337 338 339 340 339 339
315 314 314 314 314 310 308 310 312 313 321 320 321 319 316 318 319 319 320 321 323 318 318 318 319 319 321 322 320 322 320 321 322 324 323 324 324 325 330 333 339 339 340 340 339
315 315 314 314 314 312 306 310 315 316 317 321 319 319 318 318 318 317 318 319 317 318 317 318 317 320 321 321 320 322 321 320 321 323 325 325 325 325 327 330 332 336 338 339 339
315 315 314 314 314 311 305 311 316 316 317 321 319 318 319 320 318 319 320 321 322 322 321 319 319 320 320 322 321 322 324 324 324 324 324 323 323 325 328 328 331 331 333 337 339
315 315 315 315 312 306 305 316 316 315 318 318 318 319 320 319 319 318 319 320 318 321 321 322 322 321 321 322 323 323 325 324 325 325 324 323 326 326 327 325 325 328 329 331 337
315 315 315 311 314 312 311 314 314 315 317 317 319 321 321 321 323 320 327 326 318 320 322 323 323 321 322 323 325 324 325 323 326 323 326 325 326 325 329 330 331 333 332 330 332
315 315 311 315 315 307 314 313 312 313 316 317 320 319 322 321 325 324 328 328 329 320 318 322 323 321 323 323 324 325 323 326 325 327 326 326 326 326 328 331 335 335 334 334 332
315 312 307 313 306 312 313 315 313 314 315 317 319 319 320 321 324 329 329 327 328 326 319 321 323 324 322 324 324 325 326 326 327 327 327 327 327 332 334 334 334 334 332 335 338
313 307 311 308 316 315 318 315 316 318 317 318 317 318 320 320 323 329 328 328 326 328 326 321 324 325 325 320 321 323 324 325 326 330 328 329 329 327 332 332 331 332 335 340 342
308 305 314 316 317 318 318 318 318 318 318 319 319 318 319 320 326 329 328 326 326 329 330 326 325 327 327 328 326 327 325 327 328 328 332 332 330 329 332 333 334 335 339 343 344
305 309 314 316 316 317 319 318 319 318 318 319 319 319 320 320 321 327 328 328 326 327 326 323 328 327 328 325 325 330 328 327 330 329 328 331 332 333 334 335 337 337 341 343 343
305 309 316 320 318 317 318 318 320 320 319 318 320 320 320 322 322 325 327 327 325 323 326 330 331 332 330 329 329 330 330 328 328 329 329 332 334 334 334 334 338 337 341 342 342
307 315 317 319 317 318 317 320 320 321 320 322 321 322 320 322 322 324 325 324 324 324 326 326 330 330 325 328 330 332 331 329 328 328 331 332 335 334 332 338 338 338 342 343 342
307 315 318 316 317 317 320 321 321 321 322 321 322 323 318 321 319 320 320 323 326 326 328 328 327 326 322 327 327 324 327 329 331 331 331 333 333 334 338 340 339 338 340 341 340
Wind_Speed
12 14 15 16 18 19 21 23 22 22 22 22 21 20 20 17 16 9 2 6 13 19 20 17 16 14 12 7 6 4 1 1 1 3 0 9 9 6 6 14 5 3 9 17 23
13 14 16 17 18 19 21 22 23 22 23 22 21 19 18 16 7 9 4 11 13 17 19 17 18 16 6 6 4 3 2 3 2 3 3 14 12 12 7 14 5 8 17 24 23
11 14 16 18 20 21 21 22 22 22 22 22 19 17 15 14 2 5 7 12 14 14 15 15 15 12 4 5 5 4 2 1 2 8 8 16 11 9 14 9 7 18 25 26 24
12 14 17 20 21 22 22 22 21 21 21 22 17 14 12 6 1 2 8 9 11 12 16 14 15 7 4 6 6 4 6 5 3 4 13 15 11 9 10 3 8 22 27 27 25
13 16 18 21 22 23 23 23 21 21 20 21 15 13 11 5 1 3 8 9 11 12 16 16 9 5 4 5 7 6 5 7 7 7 13 15 13 6 12 2 12 26 27 27 26
14 17 19 21 23 23 23 22 22 20 20 18 13 12 10 2 2 2 7 8 10 13 16 12 6 3 2 4 5 9 4 5 5 9 12 17 6 6 6 12 16 29 28 27 27
14 17 19 21 23 23 23 21 22 20 19 14 11 11 10 6 4 3 6 6 7 13 16 10 5 2 2 3 4 2 3 2 4 9 6 14 4 12 9 15 20 24 25 25 28
16 17 20 21 23 23 22 20 21 19 16 12 12 11 5 3 4 5 5 6 8 12 11 8 3 3 3 1 0 4 1 3 2 10 5 16 15 13 11 18 21 23 23 26 27
15 18 20 23 24 23 21 20 21 17 12 12 13 5 3 2 2 5 5 3 8 10 10 6 4 1 2 3 4 1 5 3 6 5 7 13 7 10 12 18 23 23 23 24 24
15 17 19 22 25 25 20 18 16 10 6 9 5 3 2 4 2 3 6 7 6 9 6 4 3 2 2 4 10 7 6 3 4 10 11 15 8 3 14 20 22 23 23 23 23
14 17 18 20 23 22 20 14 13 3 22 8 11 13 15 5 4 3 9 12 5 5 5 2 5 6 4 2 1 2 4 7 4 4 9 16 18 11 14 18 21 24 24 25 26
14 15 17 19 21 16 12 12 12 11 13 20 14 22 22 18 5 4 12 7 5 5 4 4 8 5 5 4 2 2 4 2 2 2 9 12 18 20 14 24 29 29 26 28 27
14 15 16 18 15 18 10 16 18 16 5 10 5 7 6 11 8 7 14 9 4 5 5 6 1 9 4 4 4 3 5 5 3 2 1 2 6 9 10 21 23 27 29 26 28
13 14 16 18 8 19 6 15 18 9 3 4 2 1 6 7 4 8 13 7 2 3 6 4 3 5 4 4 7 6 11 7 7 7 6 6 6 5 8 10 16 27 30 34 33
13 14 15 16 17 14 11 13 14 2 2 3 2 2 7 6 5 9 14 7 7 5 4 2 5 8 5 3 9 3 5 6 5 8 4 7 5 5 4 7 15 24 33 37 38
13 13 15 16 17 12 13 9 3 2 4 2 2 2 4 3 3 5 4 4 4 4 1 2 1 3 3 4 8 6 4 3 2 3 8 10 9 7 6 6 6 16 28 36 39
13 13 15 16 18 17 10 4 2 4 2 2 1 2 3 4 4 3 9 8 6 3 3 2 4 3 3 4 3 4 5 5 7 7 10 2 6 11 8 13 14 15 15 24 32
13 13 15 16 18 13 3 1 5 2 4 3 2 0 4 2 3 2 6 8 3 3 2 2 3 4 2 5 2 5 4 7 9 10 9 4 5 5 6 13 14 14 18 16 27
12 13 13 16 9 5 7 3 4 4 3 5 4 2 2 2 4 3 3 2 2 5 4 2 1 2 4 2 2 3 6 2 2 2 4 4 4 11 7 13 15 16 13 19 25
10 11 9 4 9 12 3 4 3 3 5 2 0 1 2 2 3 3 2 3 1 2 4 2 4 1 1 2 2 5 4 3 1 7 10 5 4 5 10 12 9 12 12 14 15
6 5 3 8 8 7 4 4 4 5 4 3 1 2 1 2 3 3 2 2 2 2 4 2 2 2 2 4 2 4 3 1 2 3 7 9 6 4 10 10 13 10 9 12 10
2 1 3 15 3 0 3 3 2 2 2 2 2 2 1 2 3 4 4 2 5 2 3 2 2 3 4 2 4 3 2 2 4 3 2 4 9 4 8 11 13 12 7 5 2
3 2 10 2 3 3 3 2 3 2 2 2 3 3 2 1 3 4 3 1 6 3 2 4 1 2 1 3 2 2 1 3 3 2 5 6 6 3 6 8 7 5 1 4 3
4 2 3 7 4 2 2 4 3 3 5 4 3 2 2 1 2 4 4 2 2 4 6 2 2 0 2 3 2 6 7 6 4 4 5 8 12 12 7 5 6 4 4 6 7
5 2 3 3 4 5 2 3 2 3 4 4 2 6 3 2 2 4 2 3 3 2 3 1 2 2 5 9 6 7 11 10 8 9 6 7 7 11 8 4 1 1 4 11 13
6 4 3 1 2 3 5 3 6 3 4 4 4 1 9 3 3 6 6 3 2 2 2 1 2 2 3 1 4 8 11 12 11 10 11 8 12 4 5 3 5 5 6 11 15
9 6 3 1 2 3 4 4 3 2 6 8 3 1 7 4 2 4 2 7 5 3 2 1 2 1 2 4 9 8 7 10 7 4 4 7 8 7 7 9 12 12 9 10 14
Wind_Direction
353 356 357 356 353 350 348 347 347 342 338 336 335 334 334 335 332 344 312 171 167 167 166 174 172 169 161 162 149 141 184 116 210 229 96 165 170 136 116 138 142 185 156 160 160
348 352 353 354 351 347 343 343 341 338 335 336 331 332 334 336 350 32 81 159 163 172 175 179 173 165 168 162 158 176 211 176 213 235 221 182 187 149 133 154 141 107 145 155 159
347 350 351 350 347 344 340 341 336 332 336 336 331 332 334 336 73 31 104 153 151 160 179 178 175 163 160 164 171 171 185 202 225 231 205 173 181 163 138 182 199 165 159 164 166
345 347 347 346 343 339 340 340 332 329 336 334 333 334 333 343 192 50 147 148 176 173 176 165 165 167 156 176 179 184 238 236 302 159 169 178 173 159 157 134 199 172 170 170 176
338 343 345 343 341 338 338 337 328 328 331 332 331 337 334 326 147 96 164 167 173 175 176 164 166 159 186 179 155 208 219 220 254 197 201 174 193 178 174 129 154 169 176 182 184
332 339 342 341 339 336 333 332 327 328 329 328 326 327 321 286 157 111 157 178 187 176 175 173 176 185 153 175 219 188 217 282 294 229 208 187 179 188 129 169 157 173 180 188 194
328 334 338 338 335 334 333 327 327 327 324 328 328 321 303 264 180 139 154 172 189 183 180 171 138 93 168 191 231 188 212 155 31 156 177 175 192 221 148 158 168 181 188 195 201
323 330 336 338 334 333 329 323 325 323 315 312 325 318 267 201 175 169 150 167 170 174 175 185 206 294 177 240 190 192 168 224 116 172 169 189 225 204 170 172 180 192 194 201 206
318 328 336 338 335 332 326 322 325 317 306 302 310 308 274 151 162 180 170 127 159 170 171 159 211 191 160 200 185 90 195 176 156 193 169 202 234 216 188 193 189 195 200 206 210
316 324 335 339 337 333 329 330 328 314 332 308 295 279 250 148 20 276 175 157 134 153 156 182 145 159 127 201 211 187 171 158 163 192 191 194 231 200 197 198 205 203 204 209 216
310 320 333 341 342 340 341 354 8 335 317 270 266 278 288 275 308 196 172 174 165 151 164 135 198 201 180 160 120 126 159 162 161 183 181 212 225 221 204 213 215 214 212 213 221
305 316 331 341 346 354 359 55 27 322 306 307 278 260 256 257 290 214 169 157 166 170 132 160 221 180 137 144 164 149 145 213 308 247 215 215 229 236 210 218 217 217 216 217 223
301 314 328 340 348 359 1 12 350 339 275 297 272 262 246 203 211 201 172 159 155 156 178 207 124 145 164 146 166 198 211 181 147 49 287 334 259 241 227 236 230 231 227 226 224
295 311 326 340 355 352 357 340 334 334 301 277 269 232 182 157 209 185 181 162 130 192 171 212 155 192 167 206 195 216 211 208 157 181 229 203 239 244 234 244 220 224 222 224 227
288 306 324 340 339 353 345 330 326 350 325 15 86 154 168 184 140 187 179 181 174 162 193 114 152 160 174 171 189 200 137 193 177 205 201 197 249 228 227 226 225 222 221 223 223
282 302 318 329 329 332 327 322 321 254 251 355 116 158 167 202 144 120 163 138 134 131 187 262 212 226 191 186 195 131 126 82 97 173 229 218 228 225 226 230 250 235 226 223 221
279 298 313 319 312 316 318 332 205 231 345 1 351 342 229 156 149 154 170 178 192 177 226 244 214 246 201 218 179 207 179 205 216 217 246 130 213 254 235 238 239 261 251 233 226
277 295 306 307 302 303 261 155 222 234 260 332 334 266 162 142 75 102 148 175 79 88 113 351 115 189 121 235 234 185 213 236 228 229 239 142 221 236 258 273 254 260 273 260 229
280 299 305 303 304 243 169 188 235 223 320 326 306 92 100 138 121 108 78 126 203 192 220 180 178 284 223 237 243 141 221 335 159 87 254 246 252 277 274 260 260 269 273 265 240
290 308 299 268 321 171 180 234 240 250 323 302 19 350 113 71 110 105 81 43 81 163 240 185 246 206 279 230 148 241 131 205 217 239 251 222 246 253 280 273 271 273 302 306 281
295 310 302 302 150 170 210 229 261 262 267 300 320 334 357 101 93 103 123 91 21 77 149 136 235 172 270 210 241 158 192 175 277 252 265 270 260 230 272 291 287 282 300 310 324
249 247 340 142 156 209 215 214 279 308 302 289 274 260 276 2 80 103 117 56 358 168 90 66 127 240 271 79 320 311 306 206 257 242 256 294 266 222 266 283 284 287 296 335 285
188 157 175 104 204 203 233 255 264 257 271 318 295 250 203 58 101 109 128 90 11 68 123 167 67 303 219 145 113 52 177 139 116 197 245 283 292 223 296 286 295 278 345 62 128
171 157 188 212 243 291 240 235 243 249 236 244 275 297 307 133 34 136 123 57 45 85 81 112 108 287 293 314 309 290 290 300 233 263 291 274 293 285 290 304 318 305 97 119 136
175 186 195 167 212 227 250 306 284 300 226 205 222 228 200 136 93 114 110 128 67 67 69 33 116 218 256 263 271 271 288 295 252 269 259 299 272 299 292 278 257 255 135 139 141
159 175 174 175 246 198 181 231 245 241 233 204 215 267 214 202 180 170 147 190 165 94 77 53 152 197 269 303 259 281 282 278 268 268 250 261 272 261 269 202 170 159 163 155 150
183 170 127 131 204 183 188 224 242 344 237 241 204 27 159 175 179 120 97 113 124 126 109 67 152 232 242 324 309 268 311 294 293 232 257 246 288 331 266 215 186 165 167 152 138